time_stamp(utc),avg(mph),gust(mph),direction(deg),12m_air_temp(f),sonic_u(cm/s),sonic_v(cm/s),sonic_w(cm/s),pressure,2m_air_temp(f),pyranometer(W/m^2)
"2016-07-14 00:01:24+00",10.7,11.7,,75.4,270,-389,-1,1015.14,75.6,0
"2016-07-14 00:06:24+00",12.7,14.7,,75.3,275,-477,-15,1015.46,75.5,0
"2016-07-14 00:11:24+00",11.3,13.3,,75.3,259,-421,-11,1015.42,75.4,0
"2016-07-14 00:16:24+00",10.9,12.9,,75.3,239,-404,-2,1015.51,75.4,0
"2016-07-14 00:21:24+00",10.9,12.9,,75.3,216,-415,-7,1015.6,75.4,0
"2016-07-14 00:26:24+00",10.4,12.4,,75.3,210,-391,-4,1015.58,75.3,0
"2016-07-14 00:31:24+00",9.9,10.9,,75.3,208,-371,-4,1015.63,75.3,0
"2016-07-14 00:36:24+00",9.9,10.9,,75.2,210,-375,4,1015.55,75.2,0
"2016-07-14 00:41:24+00",9.5,10.5,,75.2,212,-359,12,1015.43,75.2,0
"2016-07-14 00:46:24+00",9.8,11.8,,75.2,228,-368,-16,1015.34,75.2,0
"2016-07-14 00:51:24+00",10.9,12.9,,75.2,255,-390,-46,1015.29,75.1,0
"2016-07-14 00:56:24+00",10.7,12.7,,75.2,287,-361,-48,1015.28,75.1,0
"2016-07-14 01:01:24+00",10.9,12.9,,75.1,279,-367,-63,1015.36,75.1,0
"2016-07-14 01:06:24+00",12.3,15.3,,75.1,350,-403,-51,1015.18,75,0
"2016-07-14 01:11:24+00",11.1,13.1,,75.1,315,-341,-64,1015.16,75.1,0
"2016-07-14 01:16:24+00",10.6,12.6,,75.1,322,-320,-48,1015.14,75,0
"2016-07-14 01:21:24+00",11.8,14.8,,75.1,340,-359,-55,1015.2,75,0
"2016-07-14 01:26:24+00",13.2,15.2,,75.1,365,-409,-67,1015.17,75,0
"2016-07-14 01:31:24+00",13.4,15.4,,75.1,365,-444,-77,1015.07,75,0
"2016-07-14 01:36:24+00",11.3,12.3,,75.2,268,-400,-27,1015.04,75.1,0
"2016-07-14 01:41:24+00",13.1,15.1,,75.2,282,-476,-73,1015.05,75.1,0
"2016-07-14 01:46:24+00",12.8,14.8,,75.2,328,-430,-82,1015.02,75.2,0
"2016-07-14 01:51:24+00",10.6,12.6,,75.2,252,-343,-65,1015.06,75.2,0
"2016-07-14 01:56:24+00",11.2,13.2,,75.2,229,-401,-102,1015.11,75.2,0
"2016-07-14 02:01:24+00",10.2,11.2,,75.2,221,-346,-89,1015.22,75.2,0
"2016-07-14 02:06:24+00",9.0,12.0,,75.3,175,-315,-75,1015.17,75.3,0
"2016-07-14 02:11:24+00",9.8,11.8,,75.3,215,-347,-53,1015.19,75.4,0
"2016-07-14 02:16:24+00",8.9,9.9,,75.3,172,-290,-77,1015.15,75.4,0
"2016-07-14 02:21:24+00",8.6,10.6,,75.4,190,-336,-8,1015.09,75.3,0
"2016-07-14 02:26:24+00",9.1,12.1,,75.4,112,-273,63,1014.99,75.4,0
"2016-07-14 02:31:24+00",10.6,13.6,,75.6,164,-309,-21,1014.92,75.4,0
"2016-07-14 02:36:24+00",11.5,15.5,,75.7,215,-449,-50,1014.86,75.5,0
"2016-07-14 02:41:24+00",12.6,14.6,,75.7,259,-485,-31,1014.73,75.6,0
"2016-07-14 02:46:24+00",12.0,13.0,,75.8,214,-474,-46,1014.82,75.6,0
"2016-07-14 02:51:24+00",13.2,15.2,,75.8,244,-514,-36,1014.72,75.6,0
"2016-07-14 02:56:24+00",13.8,15.8,,75.8,237,-557,-35,1014.73,75.6,0
"2016-07-14 03:01:24+00",12.3,16.3,,75.8,191,-487,-24,1014.85,75.6,0
"2016-07-14 03:06:24+00",14.7,16.7,,75.7,298,-584,-38,1014.71,75.6,0
"2016-07-14 03:11:24+00",14.1,17.1,,75.7,257,-564,-51,1014.54,75.6,0
"2016-07-14 03:16:24+00",12.3,16.3,,75.7,184,-499,-51,1014.65,75.6,0
"2016-07-14 03:21:24+00",14.5,17.5,,75.6,224,-587,-52,1014.64,75.5,0
"2016-07-14 03:26:24+00",15.6,17.6,,75.6,238,-636,-57,1014.58,75.5,0
"2016-07-14 03:31:24+00",13.7,16.7,,75.6,183,-561,-33,1014.57,75.5,0
"2016-07-14 03:36:24+00",14.2,15.2,,75.6,211,-591,-38,1014.57,75.5,0
"2016-07-14 03:41:24+00",14.6,17.6,,75.7,206,-590,-59,1014.61,75.5,0
"2016-07-14 03:46:24+00",16.0,19.0,,75.8,201,-665,-63,1014.52,75.5,0
"2016-07-14 03:51:24+00",15.1,17.1,,75.8,185,-626,-46,1014.52,75.6,0
"2016-07-14 03:56:24+00",15.4,18.4,,75.8,204,-622,-64,1014.54,75.6,0
"2016-07-14 04:01:24+00",13.0,16.0,,75.9,150,-555,-35,1014.62,75.6,0
"2016-07-14 04:06:24+00",10.0,14.0,,75.9,74,-415,-7,1014.79,75.7,0
"2016-07-14 04:11:24+00",13.8,16.8,,76.1,110,-577,-51,1014.78,75.8,0
"2016-07-14 04:16:24+00",13.0,16.0,,76.1,118,-533,-42,1014.73,75.8,0
"2016-07-14 04:21:24+00",14.6,18.6,,76.3,131,-618,-36,1014.57,76,0
"2016-07-14 04:26:24+00",16.7,19.7,,76.3,185,-711,-80,1014.56,76,0
"2016-07-14 04:31:24+00",13.5,16.5,,76.2,127,-577,-67,1014.71,76,0
"2016-07-14 04:36:24+00",14.0,16.0,,76.3,153,-593,-40,1014.69,76.1,0
"2016-07-14 04:41:24+00",13.3,16.3,,76.3,164,-552,-27,1014.74,76.1,0
"2016-07-14 04:46:24+00",12.8,14.8,,76.3,196,-523,-33,1014.87,76.1,0
"2016-07-14 04:51:24+00",12.9,14.9,,76.2,181,-516,-28,1014.8,76.1,0
"2016-07-14 04:56:24+00",11.7,13.7,,76,169,-473,-22,1014.79,76,0
"2016-07-14 05:01:24+00",10.1,13.1,,75.9,164,-406,-24,1014.85,75.9,0
"2016-07-14 05:06:24+00",10.7,12.7,,75.9,168,-437,-43,1014.89,75.9,0
"2016-07-14 05:11:24+00",10.1,12.1,,75.9,178,-391,-20,1015.01,75.9,0
"2016-07-14 05:16:24+00",10.5,13.5,,75.9,205,-391,-77,1014.99,75.8,0
"2016-07-14 05:21:24+00",10.6,12.6,,75.8,167,-382,-96,1015.02,75.8,0
"2016-07-14 05:26:24+00",8.2,10.2,,75.9,96,-302,-70,1015.08,75.8,0
"2016-07-14 05:31:24+00",9.4,11.4,,75.9,121,-339,-89,1015.03,75.9,0
"2016-07-14 05:36:24+00",10.5,11.5,,75.9,146,-380,-107,1015.04,75.9,0
"2016-07-14 05:41:24+00",7.1,9.1,,75.9,56,-270,-54,1015,75.9,0
"2016-07-14 05:46:24+00",7.5,9.5,,76,52,-278,-75,1014.88,75.9,0
"2016-07-14 05:51:24+00",7.1,9.1,,75.8,37,-269,-72,1014.78,75.8,0
"2016-07-14 05:56:24+00",6.4,8.4,,75.7,62,-232,-66,1014.68,75.7,0
"2016-07-14 06:01:24+00",9.2,10.2,,75.6,99,-337,-92,1014.6,75.6,0
"2016-07-14 06:06:24+00",8.6,11.6,,75.5,138,-290,-85,1014.44,75.5,0
"2016-07-14 06:11:24+00",9.5,11.5,,75.5,151,-343,-76,1014.38,75.4,0
"2016-07-14 06:16:24+00",9.7,10.7,,75.5,156,-357,-74,1014.34,75.3,0
"2016-07-14 06:21:24+00",10.0,11.0,,75.4,181,-365,-73,1014.29,75.3,0
"2016-07-14 06:26:24+00",10.5,11.5,,75.3,164,-413,-52,1014.21,75.2,0
"2016-07-14 06:31:24+00",10.5,12.5,,75.2,133,-408,-87,1014.23,75.2,0
"2016-07-14 06:36:24+00",9.9,11.9,,75.2,120,-387,-64,1014.09,75.2,0
"2016-07-14 06:41:24+00",9.8,11.8,,75.3,107,-379,-86,1014.05,75.2,0
"2016-07-14 06:46:24+00",9.9,11.9,,75.6,112,-374,-72,1014.03,75.4,0
"2016-07-14 06:51:24+00",8.4,10.4,,75.8,105,-312,-76,1014.02,75.6,0
"2016-07-14 06:56:24+00",6.7,8.7,,75.8,79,-248,-54,1014,75.6,0
"2016-07-14 07:01:24+00",9.2,11.2,,75.7,148,-312,-97,1013.85,75.6,0
"2016-07-14 07:06:24+00",7.8,8.8,,75.6,135,-283,-59,1013.78,75.5,0
"2016-07-14 07:11:24+00",6.8,7.8,,75.4,81,-233,-52,1013.72,75.4,0
"2016-07-14 07:16:24+00",8.0,9.0,,75.3,69,-293,-79,1013.59,75.4,0
"2016-07-14 07:21:24+00",5.9,6.9,,75.4,-94,-226,-32,1013.61,75.4,0
"2016-07-14 07:26:24+00",6.3,8.3,,75.8,-166,-222,-44,1013.54,75.6,0
"2016-07-14 07:31:24+00",6.4,8.4,,76.1,-143,-236,-42,1013.5,75.8,0
"2016-07-14 07:36:24+00",6.8,9.8,,76.2,-91,-244,-47,1013.61,75.9,0
"2016-07-14 07:41:24+00",6.4,8.4,,76.2,-125,-247,-42,1013.53,76,0
"2016-07-14 07:46:24+00",6.7,7.7,,76.2,-134,-248,-49,1013.61,76,0
"2016-07-14 07:51:24+00",9.3,12.3,,76.3,-136,-366,-71,1013.46,76,0
"2016-07-14 07:56:24+00",9.3,11.3,,76.2,-114,-367,-48,1013.45,76,0
"2016-07-14 08:01:24+00",7.3,10.3,,76.1,-99,-277,-42,1013.56,76,0
"2016-07-14 08:06:24+00",9.1,10.1,,76.1,-135,-349,-63,1013.51,76,0
"2016-07-14 08:11:24+00",8.1,10.1,,76,-80,-308,-77,1013.48,76,0
"2016-07-14 08:16:24+00",8.9,10.9,,76,-126,-353,-64,1013.47,75.9,0
"2016-07-14 08:21:24+00",7.9,9.9,,76,-67,-306,-72,1013.45,75.9,0
"2016-07-14 08:26:24+00",8.7,10.7,,76.1,-149,-337,-64,1013.5,76,0
"2016-07-14 08:31:24+00",8.2,10.2,,76.1,-108,-321,-66,1013.44,76,0
"2016-07-14 08:36:24+00",7.4,8.4,,76.1,-217,-289,-59,1013.55,76,0
"2016-07-14 08:41:24+00",7.7,9.7,,76.2,-300,-335,-61,1013.49,76,0
"2016-07-14 08:46:24+00",7.1,8.1,,76.2,-168,-271,-53,1013.42,76.1,0
"2016-07-14 08:51:24+00",6.6,7.6,,76.2,-141,-248,-55,1013.44,76.1,0
"2016-07-14 08:56:24+00",6.5,7.5,,76.3,-202,-232,-47,1013.43,76.1,0
"2016-07-14 09:01:24+00",6.6,9.6,,76.3,-210,-237,-34,1013.52,76.1,0
"2016-07-14 09:06:24+00",7.1,9.1,,76.3,-202,-247,17,1013.52,76.2,0
"2016-07-14 09:11:24+00",9.5,10.5,,76.3,-204,-360,-4,1013.42,76.2,0
"2016-07-14 09:16:24+00",8.6,9.6,,76.3,-215,-313,5,1013.3,76.2,0
"2016-07-14 09:21:24+00",6.8,7.8,,76.3,-163,-238,15,1013.26,76.2,0
"2016-07-14 09:26:24+00",9.2,11.2,,76.3,-169,-356,-10,1013.19,76.2,0
"2016-07-14 09:31:24+00",11.9,14.9,,76.3,-294,-443,7,1013.14,76.2,0
"2016-07-14 09:36:24+00",12.6,14.6,,76.2,-384,-429,7,1013.24,76.1,0
"2016-07-14 09:41:24+00",10.9,11.9,,76.2,-351,-343,15,1013.23,76.1,0
"2016-07-14 09:46:24+00",11.8,12.8,,76.2,-371,-381,2,1013.14,76.1,0
"2016-07-14 09:51:24+00",12.4,14.4,,76.1,-350,-438,5,1013.13,76.1,0
"2016-07-14 09:56:24+00",11.4,13.4,,76.1,-343,-390,-1,1013.07,76.1,0
"2016-07-14 10:01:24+00",12.2,15.2,,76,-249,-464,-7,1012.88,76,0
"2016-07-14 10:06:24+00",10.0,12.0,,75.9,-209,-384,3,1012.83,76,0
"2016-07-14 10:11:24+00",10.3,12.3,,75.7,-183,-408,6,1012.89,75.9,0
"2016-07-14 10:16:24+00",13.0,15.0,,75.6,-275,-501,3,1012.85,75.9,0
"2016-07-14 10:21:24+00",10.7,12.7,,75.6,-185,-423,-10,1012.93,75.8,0
"2016-07-14 10:26:24+00",14.0,15.0,,75.6,-301,-530,-15,1012.94,75.8,0
"2016-07-14 10:31:24+00",12.5,13.5,,75.7,-369,-437,-12,1013.04,75.8,0
"2016-07-14 10:36:24+00",11.6,14.6,,75.8,-239,-446,-2,1012.9,75.8,0
"2016-07-14 10:41:24+00",12.4,14.4,,75.8,-298,-468,-1,1012.97,75.8,0
"2016-07-14 10:46:24+00",10.7,10.7,,75.8,-262,-397,2,1012.94,75.9,0.2
"2016-07-14 10:51:24+00",9.5,11.5,,75.9,-216,-361,20,1012.97,76,0
"2016-07-14 10:56:24+00",9.7,10.7,,75.9,-218,-366,-3,1012.91,76.1,0
"2016-07-14 11:01:24+00",8.5,10.5,,75.9,-113,-352,-7,1012.82,76.1,0
"2016-07-14 11:06:24+00",8.9,11.9,,76,-128,-351,10,1012.83,76.2,1.7
"2016-07-14 11:11:24+00",10.5,12.5,,76,-245,-383,-9,1012.78,76.3,7.8
"2016-07-14 11:16:24+00",9.5,11.5,,76.1,-212,-363,7,1012.84,76.4,8.8
"2016-07-14 11:21:24+00",8.1,11.1,,76.2,-203,-304,18,1012.8,76.5,10.2
"2016-07-14 11:26:24+00",7.1,9.1,,76.4,-144,-270,12,1012.68,76.6,26.3
"2016-07-14 11:31:24+00",7.8,8.8,,76.5,-228,-260,11,1012.65,76.7,25.8
"2016-07-14 11:36:24+00",8.4,10.4,,76.5,-221,-315,30,1012.66,76.9,23.4
"2016-07-14 11:41:24+00",9.4,11.4,,76.5,-300,-296,17,1012.78,77,18.8
"2016-07-14 11:46:24+00",9.7,10.7,,76.4,-288,-333,-2,1012.89,77,22.2
"2016-07-14 11:51:24+00",9.5,11.5,,76.5,-241,-343,-18,1012.82,77,21.1
"2016-07-14 11:56:24+00",10.0,12.0,,76.5,-317,-332,2,1012.85,77.1,13.2
"2016-07-14 12:01:24+00",9.7,11.7,,76.5,-302,-335,8,1012.95,77.1,14.8
"2016-07-14 12:06:24+00",8.7,10.7,,76.6,-232,-311,4,1012.88,77.1,16
"2016-07-14 12:11:24+00",7.0,8.0,,76.7,-138,-261,13,1012.96,77.2,20.1
"2016-07-14 12:16:24+00",8.4,9.4,,76.7,-271,-244,20,1012.9,77.3,23.9
"2016-07-14 12:21:24+00",9.8,10.8,,76.7,-345,-261,14,1013.01,77.4,26.6
"2016-07-14 12:26:24+00",10.2,11.2,,76.6,-326,-298,-1,1013.06,77.5,25
"2016-07-14 12:31:24+00",9.8,10.8,,76.5,-330,-272,16,1013.1,77.5,23.9
"2016-07-14 12:36:24+00",6.7,8.7,,76.6,-65,-272,25,1013.03,77.4,27.1
"2016-07-14 12:41:24+00",9.5,11.5,,76.6,-178,-373,1,1012.96,77.4,31.4
"2016-07-14 12:46:24+00",7.4,9.4,,76.6,-87,-307,2,1012.93,77.4,38.3
"2016-07-14 12:51:24+00",7.3,10.3,,76.6,-54,-294,8,1012.82,77.3,29.6
"2016-07-14 12:56:24+00",9.5,11.5,,76.3,3,-403,-16,1012.7,76.9,45
"2016-07-14 13:01:24+00",8.4,10.4,,76.3,-86,-349,4,1012.79,77,53.6
"2016-07-14 13:06:24+00",9.4,11.4,,76.3,-132,-382,6,1012.76,77,59.9
"2016-07-14 13:11:24+00",6.0,10.0,,76.2,-80,-233,28,1012.71,77,89.5
"2016-07-14 13:16:24+00",9.6,10.6,,76.2,-163,-382,-4,1012.78,77.1,82.8
"2016-07-14 13:21:24+00",8.3,9.3,,76.3,-252,-274,12,1013.01,77.3,62.5
"2016-07-14 13:26:24+00",8.7,10.7,,76.4,-295,-238,22,1013.08,77.6,65.7
"2016-07-14 13:31:24+00",8.0,9.0,,76.4,-200,-301,41,1012.96,77.6,47.2
"2016-07-14 13:36:24+00",10.6,12.6,,76.4,-398,-269,11,1012.99,77.7,48
"2016-07-14 13:41:24+00",12.2,13.2,,76.3,-430,-307,-1,1013.04,77.8,85.7
"2016-07-14 13:46:24+00",10.7,11.7,,76.3,-346,-313,8,1012.96,77.9,91.1
"2016-07-14 13:51:24+00",10.2,12.2,,76.6,-277,-361,2,1012.89,78.1,100.8
"2016-07-14 13:56:24+00",10.4,12.4,,76.7,-315,-351,2,1012.96,78.3,103.1
"2016-07-14 14:01:24+00",9.9,10.9,,76.9,-260,-372,26,1012.88,78.5,106.6
"2016-07-14 14:06:24+00",10.1,14.1,,77.1,-225,-387,-3,1012.64,78.7,207.1
"2016-07-14 14:11:24+00",11.5,13.5,,77.4,-224,-450,-2,1012.54,79.3,379
"2016-07-14 14:16:24+00",9.9,10.9,,77.6,-223,-384,20,1012.48,79.6,354.9
"2016-07-14 14:21:24+00",9.8,12.8,,77.7,-283,-354,13,1012.56,80.4,296.7
"2016-07-14 14:26:24+00",10.9,12.9,,77.7,-222,-420,-6,1012.6,80.7,393.2
"2016-07-14 14:31:24+00",9.9,11.9,,78.2,-252,-371,2,1012.6,81.2,398.2
"2016-07-14 14:36:24+00",8.1,10.1,,79,-154,-324,14,1012.54,81.9,403.5
"2016-07-14 14:41:24+00",7.8,9.8,,79.6,-212,-284,11,1012.58,82.7,409.8
"2016-07-14 14:46:24+00",8.5,9.5,,79.8,-248,-293,9,1012.5,83.3,417.9
"2016-07-14 14:51:24+00",7.9,8.9,,80.4,-150,-301,-6,1012.47,83.7,428.2
"2016-07-14 14:56:24+00",10.2,11.2,,80.5,-358,-253,5,1012.39,84.5,431.4
"2016-07-14 15:01:24+00",8.3,9.3,,80.6,-282,-224,9,1012.41,85.3,440.5
"2016-07-14 15:06:24+00",7.7,9.7,,80.7,-209,-272,-16,1012.41,85.8,448.9
"2016-07-14 15:11:24+00",6.2,10.2,,81.5,-54,-248,14,1012.4,85.7,448.2
"2016-07-14 15:16:24+00",7.2,10.2,,81.6,49,-301,15,1012.46,84.6,452.7
"2016-07-14 15:21:24+00",5.9,7.9,,81.9,-92,-232,1,1012.4,84.5,461.8
"2016-07-14 15:26:24+00",10.4,11.4,,82.2,-286,-365,22,1012.54,85.3,468.9
"2016-07-14 15:31:24+00",9.8,11.8,,82.5,-312,-295,27,1012.36,85.9,478.1
"2016-07-14 15:36:24+00",8.1,10.1,,82.6,-252,-259,15,1012.4,86.5,482.6
"2016-07-14 15:41:24+00",10.8,12.8,,83.3,-263,-404,-2,1012.37,86.7,487.1
"2016-07-14 15:46:24+00",7.0,11.0,,83.7,-99,-272,13,1012.36,86.6,491.4
"2016-07-14 15:51:24+00",10.3,13.3,,84.1,-358,-289,25,1012.45,87,496.3
"2016-07-14 15:56:24+00",12.2,14.2,,83.9,-378,-403,23,1012.4,87.3,498.8
"2016-07-14 16:01:24+00",10.3,12.3,,84.4,-91,-438,-1,1012.28,87.7,503.1
"2016-07-14 16:06:24+00",7.4,10.4,,84.9,-170,-245,51,1012.29,88.1,505.2
"2016-07-14 16:11:24+00",12.5,15.5,,84.8,-237,-485,-20,1012.26,87.5,508.8
"2016-07-14 16:16:24+00",9.8,12.8,,84.1,11,-391,10,1012.29,86.5,510.1
"2016-07-14 16:21:24+00",12.7,15.7,,84.1,-73,-531,-9,1012.24,86.2,512.9
"2016-07-14 16:26:24+00",9.5,14.5,,85.2,-114,-392,27,1012.23,86.9,515
"2016-07-14 16:31:24+00",11.7,16.7,,85.1,-140,-485,-2,1012.14,87.2,522.7
"2016-07-14 16:36:24+00",10.4,14.4,,85,-136,-431,21,1012.17,87.5,520.6
"2016-07-14 16:41:24+00",9.7,13.7,,84.9,-95,-401,-1,1012.13,87.3,523.4
"2016-07-14 16:46:24+00",12.4,15.4,,84.7,-128,-499,-8,1011.93,86.9,522.9
"2016-07-14 16:51:24+00",11.7,16.7,,84.8,-128,-484,17,1011.87,86.8,524.7
"2016-07-14 16:56:24+00",11.7,16.7,,85.5,-143,-486,12,1011.94,87.3,507.7
"2016-07-14 17:01:24+00",9.8,12.8,,84.7,2,-407,-19,1012.01,86.8,523.3
"2016-07-14 17:06:24+00",17.0,20.0,,85.6,-390,-651,-11,1011.96,87.5,523.2
"2016-07-14 17:11:24+00",13.6,17.6,,83.8,65,-585,-23,1011.93,86.1,529.3
"2016-07-14 17:16:24+00",13.1,16.1,,82.4,39,-554,-3,1011.84,84.8,522.8
"2016-07-14 17:21:24+00",11.8,15.8,,83.7,-138,-489,-16,1011.78,85.7,527.3
"2016-07-14 17:26:24+00",13.3,15.3,,84.4,-230,-541,5,1011.71,86.3,523.6
"2016-07-14 17:31:24+00",11.1,15.1,,83.8,-118,-451,13,1011.55,85.8,526.1
"2016-07-14 17:36:24+00",10.4,13.4,,83.4,18,-436,9,1011.5,85.3,523
"2016-07-14 17:41:24+00",11.9,18.9,,82.8,1,-488,10,1011.52,84.7,525.1
"2016-07-14 17:46:24+00",13.7,17.7,,82.2,-16,-583,-12,1011.4,84,523.9
"2016-07-14 17:51:24+00",14.9,18.9,,82.7,-148,-629,-5,1011.34,84.5,526.2
"2016-07-14 17:56:24+00",15.5,19.5,,83,-140,-645,-19,1011.2,84.9,524.1
"2016-07-14 18:01:24+00",11.5,14.5,,83.5,-169,-460,38,1011.2,85.2,521
"2016-07-14 18:06:24+00",16.7,19.7,,84.2,-273,-660,-34,1011.09,85.9,515.6
"2016-07-14 18:11:24+00",12.7,16.7,,84.7,-170,-527,13,1010.98,86.7,512.1
"2016-07-14 18:16:24+00",15.3,20.3,,85.1,-249,-609,-7,1010.88,87,506.7
"2016-07-14 18:21:24+00",14.7,19.7,,85,-191,-603,4,1010.79,87,504.1
"2016-07-14 18:26:24+00",13.6,16.6,,85.3,-308,-525,25,1010.68,87.4,497.9
"2016-07-14 18:31:24+00",15.0,17.0,,85.5,-339,-566,-4,1010.63,87.7,492.1
"2016-07-14 18:36:24+00",16.0,19.0,,85.8,-289,-623,5,1010.47,87.8,491.4
"2016-07-14 18:41:24+00",12.6,14.6,,86.4,-156,-522,10,1010.45,88.1,486
"2016-07-14 18:46:24+00",14.6,18.6,,85.8,-162,-598,8,1010.34,87.7,479.1
"2016-07-14 18:51:24+00",11.8,15.8,,85.7,-174,-478,18,1010.36,87.8,473.9
"2016-07-14 18:56:24+00",14.0,18.0,,85.7,-198,-563,7,1010.25,87.8,464.6
"2016-07-14 19:01:24+00",11.1,16.1,,85.1,-111,-477,36,1010.17,87.2,460.2
"2016-07-14 19:06:24+00",11.3,14.3,,84.9,-104,-465,24,1009.93,86.8,458.5
"2016-07-14 19:11:24+00",15.7,18.7,,84.4,-164,-663,-23,1009.85,86.3,453.9
"2016-07-14 19:16:24+00",17.0,20.0,,83.8,-172,-706,-11,1009.85,85.7,446.9
"2016-07-14 19:21:24+00",18.0,22.0,,83.5,-212,-746,-28,1009.9,85.5,441.2
"2016-07-14 19:26:24+00",14.6,19.6,,84,-186,-599,19,1009.91,85.8,428.3
"2016-07-14 19:31:24+00",15.6,18.6,,84.6,-276,-619,-5,1009.89,86.4,425.7
"2016-07-14 19:36:24+00",14.5,18.5,,85.1,-287,-579,15,1009.82,86.8,418
"2016-07-14 19:41:24+00",17.3,19.3,,84.8,-358,-670,-8,1009.76,86.9,410.8
"2016-07-14 19:46:24+00",18.6,19.6,,84.5,-432,-704,-3,1009.78,86.9,405.6
"2016-07-14 19:51:24+00",16.4,19.4,,85.2,-316,-638,-5,1009.63,87.1,397.6
"2016-07-14 19:56:24+00",19.3,22.3,,85.3,-429,-733,-19,1009.61,87.2,388
"2016-07-14 20:01:24+00",18.6,20.6,,85.7,-402,-715,-5,1009.6,87.6,382.4
"2016-07-14 20:06:24+00",16.4,19.4,,85.5,-359,-621,-15,1009.55,87.5,369.9
"2016-07-14 20:11:24+00",18.8,21.8,,85.9,-397,-718,-6,1009.54,87.8,362.8
"2016-07-14 20:16:24+00",16.7,19.7,,86.1,-387,-640,4,1009.58,88.1,356.4
"2016-07-14 20:21:24+00",14.1,19.1,,86.3,-309,-546,18,1009.56,88.1,275.7
"2016-07-14 20:26:24+00",18.2,20.2,,86.5,-458,-684,1,1009.48,88.4,233.2
"2016-07-14 20:31:24+00",17.0,19.0,,86.6,-389,-648,-1,1009.51,88.2,319
"2016-07-14 20:36:24+00",16.5,18.5,,86.5,-421,-613,2,1009.49,88.2,127.2
"2016-07-14 20:41:24+00",16.2,18.2,,86.4,-409,-611,20,1009.5,87.9,164.8
"2016-07-14 20:46:24+00",17.6,20.6,,87,-401,-669,3,1009.42,88.5,62.3
"2016-07-14 20:51:24+00",15.9,17.9,,86.7,-426,-586,9,1009.4,88.4,50.8
"2016-07-14 20:56:24+00",13.2,14.2,,87,-331,-484,-1,1009.4,88.8,47.5
"2016-07-14 21:01:24+00",14.8,17.8,,87.1,-347,-564,20,1009.25,89,32.6
"2016-07-14 21:06:24+00",13.9,15.9,,86.9,-383,-506,19,1009.22,88.8,229.4
"2016-07-14 21:11:24+00",13.7,16.7,,86.8,-339,-512,-8,1009.15,88.8,84.4
"2016-07-14 21:16:24+00",13.8,15.8,,86.8,-291,-533,-6,1009.12,88.4,278.1
"2016-07-14 21:21:24+00",13.7,17.7,,87,-316,-519,8,1009.12,88.6,67.8
"2016-07-14 21:26:24+00",15.8,17.8,,87.2,-354,-602,-13,1009.13,88.9,178.9
"2016-07-14 21:31:24+00",15.6,17.6,,87.2,-412,-574,-9,1009.12,88.9,228.4
"2016-07-14 21:36:24+00",12.1,14.1,,87.9,-329,-441,22,1009.16,89.3,218.3
"2016-07-14 21:41:24+00",13.0,16.0,,88,-333,-481,4,1009.03,89.5,208.1
"2016-07-14 21:46:24+00",11.7,15.7,,87.4,-147,-474,-3,1008.98,88.9,199.4
"2016-07-14 21:51:24+00",13.1,17.1,,86.9,-166,-531,24,1009.02,88.2,192.8
"2016-07-14 21:56:24+00",12.6,14.6,,86.6,-129,-515,-8,1008.92,87.8,186.8
"2016-07-14 22:01:24+00",8.7,11.7,,87.4,-81,-350,-2,1008.92,88.2,179.1
"2016-07-14 22:06:24+00",11.8,14.8,,86.7,-146,-485,1,1009.05,87.8,170.4
"2016-07-14 22:11:24+00",11.6,15.6,,85.4,-112,-481,-9,1008.92,86.2,161.1
"2016-07-14 22:16:24+00",12.4,15.4,,84,-18,-520,-24,1009.01,85,150
"2016-07-14 22:21:24+00",11.5,14.5,,83.7,-62,-488,-14,1009.19,84.5,142.3
"2016-07-14 22:26:24+00",13.2,17.2,,85.5,-186,-544,-21,1009.34,85.7,133.4
"2016-07-14 22:31:24+00",12.8,14.8,,85.8,-162,-525,-4,1009.35,86.2,104.8
"2016-07-14 22:36:24+00",12.8,15.8,,85.3,-128,-534,-10,1009.43,85.9,109.9
"2016-07-14 22:41:24+00",13.9,16.9,,84.9,-168,-577,-11,1009.53,85.6,91
"2016-07-14 22:46:24+00",13.1,15.1,,84.6,-186,-521,-11,1009.59,85.4,91.9
"2016-07-14 22:51:24+00",12.1,15.1,,85.3,-159,-495,-7,1009.6,85.9,85.5
"2016-07-14 22:56:24+00",14.4,16.4,,85.7,-285,-560,-6,1009.56,86.2,75.1
"2016-07-14 23:01:24+00",12.0,14.0,,85.5,-244,-468,7,1009.63,86.1,64.2
"2016-07-14 23:06:24+00",12.3,14.3,,85.3,-200,-487,-12,1009.67,86,56.7
"2016-07-14 23:11:24+00",10.7,12.7,,84.9,-151,-437,1,1009.66,85.6,47.6
"2016-07-14 23:16:24+00",11.3,14.3,,84.1,-156,-468,-7,1009.74,84.7,39.3
"2016-07-14 23:21:24+00",11.9,14.9,,83.8,-171,-492,-7,1009.89,84.4,28.6
"2016-07-14 23:26:24+00",13.3,15.3,,84,-308,-502,-6,1010.01,84.5,14.9
"2016-07-14 23:31:24+00",10.6,12.6,,83.7,-150,-433,-7,1009.9,84.4,14.7
"2016-07-14 23:36:24+00",9.8,11.8,,83.3,-153,-387,5,1009.8,83.9,5.6
"2016-07-14 23:41:24+00",9.2,11.2,,83.2,-143,-375,-2,1009.85,83.7,1.5
"2016-07-14 23:46:24+00",8.7,10.7,,83.3,-225,-325,19,1009.81,83.6,0
"2016-07-14 23:51:24+00",11.9,13.9,,83.7,-288,-444,1,1009.76,83.7,0
"2016-07-14 23:56:24+00",12.0,14.0,,83.7,-246,-461,-4,1009.71,83.7,0
